Weather History for Opa Locka, FL

Change the Weather History Date:

Monday, January 21, 2013

  Actual Average Record
Temperature  
Mean Temperature 72 °F -  
Max Temperature 79 °F 75 °F 85 °F (1987)
Min Temperature 66 °F 57 °F 33 °F (1971)
Cooling Degree Days 8    
Growing Degree Days 22 (Base 50)    
Moisture  
Dew Point 66 °F    
Average Humidity 81    
Maximum Humidity 97    
Minimum Humidity 64    
Precipitation  
Precipitation 0.07 in - - ()
Sea Level Pressure  
Sea Level Pressure 30.03 in    
Wind  
Wind Speed 6 mph (WSW)    
Max Wind Speed 13 mph    
Max Gust Speed -    
Visibility 10 miles    
Events Rain    
Averages and records for this station are not official NWS values.
T = Trace of Precipitation, MM = Missing Value Source: NWS Daily Summary

Daily Weather History Graph

Daily Weather History Graph

Search for Another Location

Airport:

Trip Planner

Search our weather history database for the weather conditions in past years. The results will help you decide how hot, cold, wet, or windy it might be!

Date:

Astronomy

Jan. 21, 2013 Rise Set
Actual Time 7:08 AM EST 5:56 PM EST
Civil Twilight 6:44 AM EST 6:21 PM EST
Nautical Twilight 6:16 AM EST 6:49 PM EST
Astronomical Twilight 5:48 AM EST 7:16 PM EST
Moon 1:37 PM EST (1/21) 2:34 AM EST (1/21)
Length of Visible Light 11h 36m
Length of Day
10h 47m
Waxing Gibbous, 75% of the Moon is Illuminated
Jan 21
Waxing Gibbous
Jan 26
Full
Feb 3
Last Quarter
Feb 10
New
Feb 17
First Quarter

Hourly Weather History & Observations

Time (EST) Temp. Dew Point Humidity Pressure Visibility Wind Dir Wind Speed Gust Speed Precip Events Conditions
12:53 AM 70.0 °F 66.0 °F 87% 30.05 in 10.0 mi North 5.8 mph - N/A   Mostly Cloudy
1:53 AM 70.0 °F 66.9 °F 90% 30.05 in 10.0 mi North 5.8 mph - N/A   Mostly Cloudy
2:53 AM 69.1 °F 66.9 °F 93% 30.03 in 10.0 mi NNE 3.5 mph - N/A   Mostly Cloudy
3:53 AM 69.8 °F 66.2 °F 88% 30.03 in 10.0 mi Calm Calm - N/A   Scattered Clouds
4:53 AM 69.1 °F 66.0 °F 90% 30.02 in 10.0 mi North 4.6 mph - N/A   Mostly Cloudy
5:53 AM 66.9 °F 66.0 °F 97% 30.03 in 10.0 mi Calm Calm - N/A   Mostly Cloudy
6:53 AM 66.2 °F 64.4 °F 94% 30.04 in 10.0 mi Calm Calm - N/A   Mostly Cloudy
7:53 AM 68.0 °F 66.0 °F 93% 30.06 in 10.0 mi Calm Calm - N/A   Mostly Cloudy
8:53 AM 75.0 °F 68.0 °F 79% 30.08 in 10.0 mi Calm Calm - N/A   Overcast
9:53 AM 78.1 °F 66.9 °F 68% 30.08 in 10.0 mi ESE 8.1 mph - N/A   Partly Cloudy
10:41 AM 78.8 °F 66.2 °F 65% 30.08 in 10.0 mi SE 6.9 mph - N/A   Overcast
10:53 AM 79.0 °F 66.0 °F 64% 30.08 in 10.0 mi SE 6.9 mph - N/A   Mostly Cloudy
11:53 AM 79.0 °F 66.9 °F 66% 30.06 in 10.0 mi ESE 5.8 mph - N/A   Mostly Cloudy
12:53 PM 78.1 °F 66.0 °F 66% 30.03 in 10.0 mi SE 6.9 mph - N/A   Overcast
1:53 PM 79.0 °F 66.0 °F 64% 30.00 in 10.0 mi South 9.2 mph - N/A   Partly Cloudy
2:53 PM 78.1 °F 66.9 °F 68% 29.99 in 10.0 mi South 9.2 mph - N/A   Mostly Cloudy
3:13 PM 77.0 °F 69.8 °F 78% 29.98 in 10.0 mi South 9.2 mph - 0.00 in   Mostly Cloudy
3:53 PM 75.0 °F 69.1 °F 82% 29.99 in 10.0 mi South 8.1 mph - 0.01 in Rain Light Rain
4:00 PM 75.2 °F 69.8 °F 83% 29.99 in 10.0 mi South 4.6 mph - 0.00 in Rain Light Rain
4:53 PM 75.9 °F 68.0 °F 76% 29.99 in 5.0 mi SW 5.8 mph - 0.06 in Rain Light Rain
5:53 PM 73.9 °F 66.0 °F 76% 30.00 in 10.0 mi West 8.1 mph - 0.00 in   Clear
6:53 PM 73.0 °F 64.9 °F 76% 30.02 in 10.0 mi West 6.9 mph - N/A   Clear
7:53 PM 72.0 °F 64.0 °F 76% 30.03 in 10.0 mi West 9.2 mph - N/A   Partly Cloudy
8:53 PM 70.0 °F 64.9 °F 84% 30.04 in 10.0 mi West 6.9 mph - N/A   Clear
9:53 PM 69.1 °F 64.9 °F 87% 30.05 in 10.0 mi WNW 9.2 mph - N/A   Scattered Clouds
10:00 PM 69.8 °F 64.4 °F 83% 30.04 in 10.0 mi WNW 9.2 mph - N/A   Mostly Cloudy
10:35 PM 68.0 °F 64.4 °F 88% 30.04 in 10.0 mi WNW 9.2 mph - N/A   Scattered Clouds
10:53 PM 68.0 °F 64.9 °F 90% 30.05 in 10.0 mi WNW 12.7 mph - N/A   Scattered Clouds
11:00 PM 68.0 °F 64.4 °F 88% 30.05 in 10.0 mi WNW 9.2 mph - N/A   Mostly Cloudy
11:22 PM 68.0 °F 64.4 °F 88% 30.05 in 10.0 mi WNW 9.2 mph - N/A   Partly Cloudy
11:53 PM 66.9 °F 64.0 °F 90% 30.05 in 10.0 mi NW 8.1 mph - N/A   Partly Cloudy